RYR9JV EIDW-LZIB

Flight info

Callsign RYR9JV
Flight time N/A
Altitude 35000
Route ENDEQ Q36 ALAVA Z195 MALUD UL975 WAL M16 DOLAS L603 LAMSO DCT PETIK DCT KUMER DCT OMELO DCT EVIKU DCT BNO DCT ODNEM A4 BERVA
Aircraft B738/M-SDE2E3FGHIRWXY/LB1

Departure

Time 2026-05-06 18:16
Airport Dublin Airport (EIDW)

Arrival

Time N/A
Airport M. R. Štefánik Airport (LZIB)
Time Latitude Longitude Altitude Speed Heading
2026-05-06 17:48 53.43014 -6.25074 250 ft 0 kts
2026-05-06 18:05 53.43001 -6.25076 249 ft 2 kts
2026-05-06 18:05 53.42986 -6.25079 249 ft 2 kts
2026-05-06 18:05 53.42971 -6.25081 249 ft 2 kts
2026-05-06 18:05 53.42963 -6.25083 249 ft 1 kts 355°
2026-05-06 18:06 53.42956 -6.25076 249 ft 1 kts 296°
2026-05-06 18:06 53.42955 -6.25066 249 ft 1 kts 266°
2026-05-06 18:06 53.42955 -6.25058 249 ft 0 kts 274°
2026-05-06 18:08 53.42956 -6.25079 249 ft 5 kts 276°
2026-05-06 18:08 53.42959 -6.25137 249 ft 4 kts 276°
2026-05-06 18:08 53.42955 -6.25231 249 ft 10 kts 261°
2026-05-06 18:08 53.42920 -6.25319 249 ft 9 kts 191°
2026-05-06 18:09 53.42858 -6.25292 249 ft 9 kts 159°
2026-05-06 18:09 53.42804 -6.25259 249 ft 7 kts 171°
2026-05-06 18:09 53.42768 -6.25294 249 ft 6 kts 229°
2026-05-06 18:09 53.42719 -6.25383 249 ft 14 kts 226°
2026-05-06 18:10 53.42638 -6.25521 249 ft 17 kts 225°
2026-05-06 18:10 53.42556 -6.25660 249 ft 16 kts 225°
2026-05-06 18:10 53.42481 -6.25788 249 ft 14 kts 226°
2026-05-06 18:10 53.42402 -6.25923 249 ft 19 kts 225°
2026-05-06 18:11 53.42308 -6.26087 249 ft 17 kts 231°
2026-05-06 18:11 53.42266 -6.26257 249 ft 15 kts 268°
2026-05-06 18:11 53.42274 -6.26436 249 ft 17 kts 275°
2026-05-06 18:11 53.42287 -6.26667 249 ft 20 kts 275°
2026-05-06 18:12 53.42300 -6.26897 249 ft 18 kts 276°
2026-05-06 18:12 53.42312 -6.27107 249 ft 17 kts 275°
2026-05-06 18:12 53.42324 -6.27343 249 ft 22 kts 275°
2026-05-06 18:12 53.42339 -6.27591 249 ft 20 kts 276°
2026-05-06 18:13 53.42351 -6.27824 249 ft 20 kts 275°
2026-05-06 18:13 53.42365 -6.28078 249 ft 21 kts 276°
2026-05-06 18:13 53.42377 -6.28326 249 ft 20 kts 274°
2026-05-06 18:13 53.42389 -6.28547 249 ft 18 kts 276°
2026-05-06 18:14 53.42402 -6.28753 249 ft 17 kts 276°
2026-05-06 18:14 53.42411 -6.28941 249 ft 14 kts 271°
2026-05-06 18:14 53.42382 -6.29048 249 ft 9 kts 216°
2026-05-06 18:14 53.42312 -6.29071 249 ft 14 kts 175°
2026-05-06 18:15 53.42241 -6.28987 249 ft 14 kts 97°
2026-05-06 18:15 53.42222 -6.28606 249 ft 64 kts 95°
2026-05-06 18:15 53.42162 -6.27475 250 ft 128 kts 96°
2026-05-06 18:15 53.42061 -6.25693 445 ft 163 kts 96°
2026-05-06 18:16 53.41981 -6.23855 1146 ft 164 kts 95°
2026-05-06 18:16 53.41921 -6.21936 1716 ft 170 kts 95°
2026-05-06 18:16 53.41821 -6.19952 2308 ft 172 kts 97°
2026-05-06 18:16 53.41684 -6.17951 2890 ft 175 kts 98°
2026-05-06 18:17 53.41521 -6.15918 3447 ft 179 kts 99°
2026-05-06 18:17 53.41357 -6.13880 4011 ft 182 kts 98°
2026-05-06 18:17 53.41235 -6.11682 4395 ft 196 kts 94°
2026-05-06 18:17 53.41194 -6.09359 4850 ft 206 kts 93°
2026-05-06 18:18 53.41082 -6.06903 5345 ft 213 kts 98°
2026-05-06 18:18 53.40792 -6.04561 6036 ft 211 kts 102°
2026-05-06 18:18 53.40720 -6.02019 6317 ft 229 kts 83°
2026-05-06 18:18 53.41071 -5.99289 6622 ft 249 kts 75°
2026-05-06 18:19 53.41457 -5.96373 7083 ft 265 kts 79°
2026-05-06 18:19 53.41736 -5.93259 7529 ft 279 kts 82°
2026-05-06 18:19 53.41956 -5.90014 8153 ft 285 kts 84°
2026-05-06 18:19 53.42164 -5.86705 8805 ft 291 kts 84°
2026-05-06 18:20 53.42386 -5.83276 8991 ft 298 kts 83°
2026-05-06 18:20 53.42613 -5.79810 9012 ft 296 kts 83°
2026-05-06 18:20 53.42842 -5.76378 9590 ft 300 kts 83°
2026-05-06 18:20 53.43068 -5.72954 10339 ft 301 kts 83°
2026-05-06 18:21 53.43302 -5.69355 10676 ft 317 kts 83°
2026-05-06 18:21 53.43549 -5.65587 11010 ft 333 kts 83°
2026-05-06 18:21 53.43806 -5.61697 11388 ft 346 kts 83°
2026-05-06 18:21 53.44075 -5.57621 11995 ft 353 kts 83°
2026-05-06 18:22 53.44344 -5.53530 12680 ft 356 kts 83°
2026-05-06 18:22 53.44558 -5.49388 13349 ft 361 kts 87°
2026-05-06 18:22 53.44582 -5.45191 13884 ft 369 kts 91°
2026-05-06 18:22 53.44482 -5.40832 14547 ft 374 kts 92°
2026-05-06 18:23 53.44338 -5.36503 15235 ft 377 kts 92°
2026-05-06 18:23 53.44187 -5.32091 15903 ft 381 kts 93°
2026-05-06 18:23 53.44044 -5.27666 16587 ft 384 kts 93°
2026-05-06 18:23 53.43911 -5.23166 17232 ft 388 kts 92°
2026-05-06 18:24 53.43787 -5.18685 17879 ft 391 kts 92°
2026-05-06 18:24 53.43662 -5.14097 18526 ft 394 kts 92°
2026-05-06 18:24 53.43528 -5.09572 19145 ft 397 kts 92°
2026-05-06 18:24 53.43384 -5.04944 19731 ft 401 kts 92°
2026-05-06 18:25 53.43236 -5.00271 20316 ft 404 kts 92°
2026-05-06 18:25 53.43086 -4.95599 20914 ft 406 kts 92°
2026-05-06 18:25 53.42932 -4.90848 21463 ft 409 kts 92°
2026-05-06 18:25 53.42775 -4.86060 21984 ft 413 kts 92°
2026-05-06 18:26 53.42617 -4.81306 22531 ft 415 kts 92°
2026-05-06 18:26 53.42452 -4.76419 23007 ft 420 kts 92°
2026-05-06 18:26 53.42289 -4.71592 23528 ft 422 kts 92°
2026-05-06 18:26 53.42120 -4.66626 24012 ft 425 kts 91°
2026-05-06 18:27 53.41950 -4.61723 24490 ft 429 kts 91°
2026-05-06 18:27 53.41775 -4.56747 25030 ft 430 kts 91°
2026-05-06 18:27 53.41597 -4.51725 25510 ft 433 kts 91°
2026-05-06 18:27 53.41415 -4.46709 26009 ft 435 kts 91°
2026-05-06 18:28 53.41229 -4.41653 26470 ft 438 kts 91°
2026-05-06 18:28 53.41041 -4.36580 26944 ft 440 kts 91°
2026-05-06 18:28 53.40848 -4.31437 27382 ft 442 kts 92°
2026-05-06 18:28 53.40656 -4.26319 27795 ft 445 kts 91°
2026-05-06 18:29 53.40457 -4.21096 28270 ft 446 kts 91°
2026-05-06 18:29 53.40258 -4.15905 28645 ft 450 kts 91°
2026-05-06 18:29 53.40056 -4.10722 29096 ft 451 kts 91°
2026-05-06 18:29 53.39850 -4.05509 29804 ft 445 kts 91°
2026-05-06 18:30 53.39658 -4.00359 30358 ft 443 kts 90°
2026-05-06 18:30 53.39607 -3.95235 30914 ft 439 kts 86°
2026-05-06 18:30 53.39737 -3.90184 31357 ft 438 kts 83°
2026-05-06 18:30 53.39971 -3.85076 31795 ft 437 kts 82°
2026-05-06 18:31 53.40247 -3.80017 32223 ft 436 kts 81°
2026-05-06 18:31 53.40533 -3.74994 32715 ft 433 kts 81°
2026-05-06 18:31 53.40819 -3.69922 33061 ft 434 kts 81°
2026-05-06 18:31 53.41089 -3.64883 33440 ft 433 kts 81°
2026-05-06 18:32 53.41260 -3.59828 33824 ft 434 kts 85°
2026-05-06 18:32 53.41212 -3.54777 34180 ft 435 kts 89°
2026-05-06 18:32 53.41032 -3.49764 34501 ft 435 kts 90°
2026-05-06 18:32 53.40791 -3.44720 34860 ft 435 kts 91°
2026-05-06 18:33 53.40528 -3.39641 34982 ft 438 kts 91°
2026-05-06 18:33 53.40266 -3.34597 34985 ft 439 kts 92°
2026-05-06 18:33 53.39747 -3.24450 34992 ft 436 kts 92°
2026-05-06 18:34 53.39248 -3.14331 34996 ft 436 kts 91°
2026-05-06 18:34 53.38812 -3.04268 34998 ft 436 kts 90°
2026-05-06 18:35 53.38441 -2.94122 34998 ft 435 kts 90°
2026-05-06 18:35 53.38071 -2.84027 34994 ft 436 kts 90°
2026-05-06 18:36 53.37682 -2.73861 35000 ft 437 kts 91°
2026-05-06 18:36 53.37282 -2.63802 35007 ft 437 kts 91°
2026-05-06 18:37 53.36865 -2.53608 35016 ft 437 kts 91°
2026-05-06 18:37 53.36445 -2.43565 35017 ft 437 kts 91°
2026-05-06 18:38 53.36010 -2.33365 35017 ft 438 kts 92°
2026-05-06 18:38 53.35510 -2.23218 35019 ft 441 kts 95°
2026-05-06 18:39 53.34559 -2.13101 35013 ft 442 kts 98°
2026-05-06 18:40 53.32888 -1.98002 35005 ft 441 kts 98°
2026-05-06 18:40 53.31790 -1.87940 34998 ft 441 kts 98°
2026-05-06 18:41 53.30707 -1.77864 35002 ft 442 kts 98°
2026-05-06 18:41 53.29627 -1.67767 35009 ft 442 kts 98°
2026-05-06 18:42 53.28541 -1.57646 35016 ft 443 kts 98°
2026-05-06 18:42 53.27449 -1.47533 35017 ft 444 kts 98°
2026-05-06 18:43 53.26348 -1.37419 35026 ft 443 kts 98°
2026-05-06 18:43 53.25238 -1.27307 35030 ft 444 kts 99°
2026-05-06 18:44 53.24117 -1.17172 35033 ft 444 kts 99°
2026-05-06 18:44 53.22993 -1.07090 35039 ft 444 kts 99°
2026-05-06 18:45 53.21854 -0.96962 35039 ft 445 kts 99°
2026-05-06 18:45 53.20701 -0.86784 35045 ft 445 kts 100°
2026-05-06 18:46 53.19544 -0.76662 35051 ft 446 kts 100°
2026-05-06 18:46 53.18371 -0.66474 35044 ft 446 kts 100°
2026-05-06 18:47 53.17200 -0.56392 35046 ft 447 kts 100°
2026-05-06 18:47 53.16011 -0.46223 35045 ft 447 kts 100°
2026-05-06 18:48 53.14811 -0.36046 35044 ft 447 kts 100°
2026-05-06 18:48 53.13627 -0.26087 35039 ft 447 kts 101°
2026-05-06 18:49 53.12405 -0.15882 35036 ft 448 kts 101°
2026-05-06 18:49 53.11181 -0.05739 35035 ft 449 kts 101°
2026-05-06 18:50 53.09943 0.04449 35035 ft 450 kts 101°
2026-05-06 18:50 53.08702 0.14586 35033 ft 449 kts 102°
2026-05-06 18:51 53.07446 0.24760 35031 ft 448 kts 102°
2026-05-06 18:51 53.06182 0.34925 35025 ft 449 kts 102°
2026-05-06 18:52 53.04914 0.45042 35026 ft 448 kts 102°
2026-05-06 18:52 53.03640 0.55140 35022 ft 447 kts 102°
2026-05-06 18:53 53.02381 0.65041 35015 ft 447 kts 103°
2026-05-06 18:53 53.01059 0.75372 35017 ft 448 kts 103°
2026-05-06 18:54 52.99760 0.85437 35012 ft 448 kts 103°
2026-05-06 18:54 52.98447 0.95549 35010 ft 448 kts 103°
2026-05-06 18:55 52.97163 1.05607 35014 ft 447 kts 102°
2026-05-06 18:55 52.95995 1.15715 35010 ft 445 kts 101°
2026-05-06 18:56 52.94852 1.25800 35013 ft 447 kts 101°
2026-05-06 18:56 52.93689 1.35913 35014 ft 448 kts 101°
2026-05-06 18:57 52.92506 1.46032 35013 ft 448 kts 102°
2026-05-06 18:57 52.91304 1.56184 35011 ft 448 kts 102°
2026-05-06 18:58 52.90093 1.66316 35010 ft 447 kts 102°
2026-05-06 18:58 52.88906 1.76150 35009 ft 446 kts 102°
2026-05-06 18:59 52.87684 1.86203 35008 ft 446 kts 102°
2026-05-06 18:59 52.86450 1.96279 35007 ft 446 kts 102°
2026-05-06 19:00 52.85219 2.06263 35005 ft 446 kts 102°
2026-05-06 19:00 52.83966 2.16339 35004 ft 445 kts 102°
2026-05-06 19:01 52.82721 2.26293 35002 ft 446 kts 102°
2026-05-06 19:01 52.81458 2.36298 35003 ft 446 kts 102°
2026-05-06 19:02 52.80186 2.46314 35005 ft 445 kts 102°
2026-05-06 19:02 52.78912 2.56275 34999 ft 444 kts 102°
2026-05-06 19:03 52.77628 2.66235 35000 ft 443 kts 103°
2026-05-06 19:03 52.76339 2.76162 34996 ft 444 kts 103°
2026-05-06 19:04 52.75037 2.86129 34996 ft 443 kts 103°
2026-05-06 19:04 52.73733 2.96029 34997 ft 443 kts 103°
2026-05-06 19:05 52.72531 3.05944 34995 ft 444 kts 100°
2026-05-06 19:05 52.71612 3.16015 34992 ft 444 kts 98°
2026-05-06 19:06 52.70750 3.26034 34993 ft 443 kts 98°
2026-05-06 19:06 52.69856 3.36044 34990 ft 442 kts 99°
2026-05-06 19:07 52.68924 3.46104 34986 ft 442 kts 99°
2026-05-06 19:07 52.67980 3.56062 34982 ft 442 kts 99°
2026-05-06 19:08 52.67023 3.66000 34980 ft 441 kts 100°
2026-05-06 19:08 52.66051 3.75982 34977 ft 441 kts 100°
2026-05-06 19:09 52.65075 3.85911 34975 ft 440 kts 100°
2026-05-06 19:09 52.64094 3.95798 34974 ft 439 kts 100°
2026-05-06 19:10 52.63104 4.05695 34968 ft 439 kts 100°
2026-05-06 19:10 52.62099 4.15652 34968 ft 440 kts 100°
2026-05-06 19:11 52.61059 4.25489 34966 ft 439 kts 102°
2026-05-06 19:11 52.59739 4.35328 34965 ft 438 kts 103°
2026-05-06 19:12 52.58334 4.45055 34963 ft 439 kts 104°
2026-05-06 19:12 52.56932 4.54775 34960 ft 439 kts 103°
2026-05-06 19:13 52.55533 4.64547 34957 ft 438 kts 103°
2026-05-06 19:13 52.54149 4.74258 34953 ft 437 kts 104°
2026-05-06 19:14 52.52768 4.83921 34953 ft 437 kts 104°
2026-05-06 19:14 52.51377 4.93628 34953 ft 436 kts 104°
2026-05-06 19:15 52.49988 5.03256 34949 ft 436 kts 104°
2026-05-06 19:15 52.48580 5.12959 34953 ft 437 kts 104°
2026-05-06 19:16 52.47168 5.22625 34950 ft 437 kts 104°
2026-05-06 19:16 52.45745 5.32310 34944 ft 437 kts 104°
2026-05-06 19:17 52.44318 5.41958 34942 ft 436 kts 104°
2026-05-06 19:17 52.42881 5.51606 34938 ft 434 kts 104°
2026-05-06 19:18 52.41438 5.61231 34937 ft 435 kts 104°
2026-05-06 19:18 52.39995 5.70807 34938 ft 436 kts 105°
2026-05-06 19:19 52.38538 5.80423 34937 ft 436 kts 105°
2026-05-06 19:19 52.37069 5.90055 34936 ft 436 kts 105°
2026-05-06 19:20 52.35590 5.99702 34937 ft 435 kts 105°
2026-05-06 19:20 52.34117 6.09244 34938 ft 435 kts 105°
2026-05-06 19:21 52.32637 6.18783 34933 ft 434 kts 105°
2026-05-06 19:21 52.31148 6.28321 34931 ft 434 kts 105°
2026-05-06 19:22 52.29641 6.37918 34928 ft 435 kts 105°
2026-05-06 19:22 52.28130 6.47475 34922 ft 435 kts 105°
2026-05-06 19:23 52.26613 6.57032 34918 ft 434 kts 105°
2026-05-06 19:23 52.25121 6.66365 34913 ft 436 kts 106°
2026-05-06 19:24 52.23594 6.75869 34913 ft 435 kts 106°
2026-05-06 19:24 52.22059 6.85372 34906 ft 433 kts 106°
2026-05-06 19:25 52.20516 6.94869 34905 ft 433 kts 106°
2026-05-06 19:25 52.18964 7.04367 34902 ft 434 kts 106°
2026-05-06 19:26 52.17412 7.13808 34894 ft 434 kts 106°
2026-05-06 19:26 52.15843 7.23299 34885 ft 435 kts 106°
2026-05-06 19:27 52.14261 7.32815 34887 ft 435 kts 106°
2026-05-06 19:27 52.12680 7.42279 34890 ft 435 kts 106°
2026-05-06 19:28 52.11081 7.51795 34883 ft 434 kts 106°
2026-05-06 19:28 52.09493 7.61197 34887 ft 433 kts 106°
2026-05-06 19:29 52.07912 7.70500 34884 ft 433 kts 107°
2026-05-06 19:29 52.06298 7.79947 34881 ft 435 kts 107°
2026-05-06 19:30 52.04670 7.89431 34872 ft 435 kts 107°
2026-05-06 19:30 52.03043 7.98858 34863 ft 435 kts 107°
2026-05-06 19:31 52.01405 8.08292 34855 ft 434 kts 107°
2026-05-06 19:31 51.98941 8.22393 34853 ft 433 kts 108°